When you browse on this site, cookies collect data to enhance your experience and personalize the content and advertising you see.
Visit our Privacy Policy to learn more. By continuing to use the site, you agree to this use of cookies and data.
  • In Romania
  • List of Countries
  • For 7 days
  • Water Temperature
  • Weather Map
  • Weather Widgets
  • user-avatar
    Login

    Hourly Weather Bedford

    Today, 26 January, Sunday

    Time Temperature Precipitation Wind Pressure Humidity
    00:00 +4°C° 0 mm 4 mps 756 mmHg 95%
    01:00 +4°C° 0 mm 4 mps 756 mmHg 95%
    02:00 +4°C° 0 mm 4 mps 755 mmHg 95%
    03:00 +5°C° 0 mm 4 mps 755 mmHg 95%
    04:00 +5°C° 0 mm 4 mps 755 mmHg 95%
    05:00 +6°C° 0 mm 5 mps 755 mmHg 94%
    06:00 +6°C° 0 mm 5 mps 755 mmHg 93%
    07:00 +6°C° 0 mm 5 mps 755 mmHg 93%
    08:00 +6°C° 0 mm 5 mps 754 mmHg 93%
    09:00 +5°C° 0 mm 6 mps 754 mmHg 93%
    10:00 +7°C° 0 mm 6 mps 754 mmHg 89%
    11:00 +6°C° 0 mm 7 mps 753 mmHg 86%
    12:00 +8°C° 0 mm 6 mps 753 mmHg 83%
    13:00 +8°C° 0.4 mm 6 mps 752 mmHg 85%
    14:00 +8°C° 0.4 mm 6 mps 752 mmHg 87%
    15:00 +8°C° 0.4 mm 7 mps 751 mmHg 89%
    16:00 +8°C° 1.2 mm 6 mps 751 mmHg 90%
    17:00 +8°C° 1.2 mm 6 mps 750 mmHg 90%
    18:00 +8°C° 1.2 mm 6 mps 750 mmHg 91%
    19:00 +7°C° 0 mm 5 mps 750 mmHg 92%
    20:00 +6°C° 0 mm 4 mps 750 mmHg 92%
    21:00 +6°C° 0 mm 4 mps 750 mmHg 93%
    22:00 +5°C° 0 mm 4 mps 750 mmHg 94%
    23:00 +5°C° 0 mm 4 mps 750 mmHg 94%

    Tomorrow, 27 January, Monday

    Time Temperature Precipitation Wind Pressure Humidity
    00:00 +4°C° 0 mm 4 mps 750 mmHg 95%
    01:00 +4°C° 0 mm 4 mps 749 mmHg 94%
    02:00 +5°C° 0 mm 5 mps 749 mmHg 93%
    03:00 +4°C° 0 mm 6 mps 748 mmHg 92%
    04:00 +5°C° 0 mm 5 mps 748 mmHg 91%
    05:00 +5°C° 0 mm 5 mps 748 mmHg 91%
    06:00 +5°C° 0 mm 5 mps 748 mmHg 91%
    07:00 +5°C° 0 mm 5 mps 747 mmHg 91%
    08:00 +5°C° 0 mm 5 mps 747 mmHg 91%
    09:00 +5°C° 0 mm 5 mps 747 mmHg 91%
    10:00 +5°C° 0 mm 5 mps 747 mmHg 87%
    11:00 +5°C° 0 mm 6 mps 747 mmHg 83%
    12:00 +5°C° 0 mm 6 mps 746 mmHg 79%
    13:00 +6°C° 0 mm 5 mps 746 mmHg 80%
    14:00 +6°C° 0 mm 4 mps 745 mmHg 80%
    15:00 +7°C° 0 mm 3 mps 745 mmHg 80%
    16:00 +5°C° 0 mm 3 mps 744 mmHg 83%
    17:00 +4°C° 0 mm 3 mps 744 mmHg 87%
    18:00 +4°C° 0 mm 3 mps 743 mmHg 90%
    19:00 +3°C° 0 mm 3 mps 742 mmHg 91%
    20:00 +3°C° 0 mm 3 mps 742 mmHg 92%
    21:00 +3°C° 0 mm 3 mps 741 mmHg 93%
    22:00 +3°C° 0.2 mm 4 mps 740 mmHg 93%
    23:00 +2°C° 0.2 mm 5 mps 739 mmHg 92%

    Day after tomorrow, 28 January, Tuesday

    Time Temperature Precipitation Wind Pressure Humidity
    00:00 +2°C° 0.2 mm 6 mps 739 mmHg 92%
    01:00 +2°C° 0.1 mm 6 mps 738 mmHg 89%
    02:00 0°C° 0.1 mm 7 mps 738 mmHg 85%
    03:00 0°C° 0.1 mm 7 mps 738 mmHg 82%
    04:00 -1°C° 0 mm 8 mps 739 mmHg 81%
    05:00 -1°C° 0 mm 8 mps 739 mmHg 79%
    06:00 -2°C° 0 mm 8 mps 740 mmHg 78%
    07:00 -1°C° 0 mm 8 mps 741 mmHg 77%
    08:00 -1°C° 0 mm 8 mps 741 mmHg 76%
    09:00 -1°C° 0 mm 8 mps 742 mmHg 75%
    10:00 0°C° 0 mm 8 mps 742 mmHg 74%
    11:00 +1°C° 0 mm 9 mps 743 mmHg 73%
    12:00 +2°C° 0 mm 9 mps 743 mmHg 71%
    13:00 +2°C° 0.1 mm 8 mps 743 mmHg 72%
    14:00 +2°C° 0.1 mm 8 mps 743 mmHg 73%
    15:00 +3°C° 0.1 mm 7 mps 743 mmHg 74%
    16:00 +2°C° 0 mm 7 mps 744 mmHg 77%
    17:00 +2°C° 0 mm 7 mps 744 mmHg 79%
    18:00 +1°C° 0 mm 6 mps 744 mmHg 81%
    19:00 0°C° 0 mm 7 mps 745 mmHg 83%
    20:00 -1°C° 0 mm 7 mps 746 mmHg 85%
    21:00 -1°C° 0 mm 8 mps 746 mmHg 87%
    22:00 -1°C° 0 mm 7 mps 747 mmHg 84%
    23:00 -1°C° 0 mm 7 mps 747 mmHg 81%

    29 January, Wednesday

    Time Temperature Precipitation Wind Pressure Humidity
    00:00 -1°C° 0 mm 7 mps 748 mmHg 78%
    01:00 -2°C° 0 mm 7 mps 749 mmHg 77%
    02:00 -2°C° 0 mm 7 mps 749 mmHg 77%
    03:00 -2°C° 0 mm 6 mps 750 mmHg 76%
    04:00 -2°C° 0 mm 6 mps 751 mmHg 77%
    05:00 -2°C° 0 mm 6 mps 751 mmHg 77%
    06:00 -2°C° 0 mm 6 mps 752 mmHg 78%
    07:00 -2°C° 0 mm 6 mps 753 mmHg 78%
    08:00 -2°C° 0 mm 6 mps 753 mmHg 79%
    09:00 -1°C° 0 mm 6 mps 754 mmHg 79%
    10:00 +1°C° 0 mm 6 mps 754 mmHg 76%
    11:00 +2°C° 0 mm 6 mps 755 mmHg 73%
    12:00 +3°C° 0 mm 7 mps 756 mmHg 70%
    13:00 +3°C° 0 mm 6 mps 756 mmHg 72%
    14:00 +3°C° 0 mm 5 mps 756 mmHg 73%
    15:00 +3°C° 0 mm 5 mps 756 mmHg 75%
    16:00 +3°C° 0 mm 5 mps 756 mmHg 78%
    17:00 +2°C° 0 mm 5 mps 756 mmHg 81%
    18:00 +2°C° 0 mm 5 mps 756 mmHg 85%
    19:00 +2°C° 0 mm 5 mps 756 mmHg 86%
    20:00 +2°C° 0 mm 6 mps 757 mmHg 87%
    21:00 +2°C° 0 mm 6 mps 757 mmHg 88%
    22:00 +2°C° 0 mm 6 mps 757 mmHg 88%
    23:00 +2°C° 0 mm 6 mps 757 mmHg 88%

    30 January, Thursday

    Time Temperature Precipitation Wind Pressure Humidity
    00:00 +2°C° 0 mm 6 mps 756 mmHg 87%
    01:00 +2°C° 0 mm 5 mps 756 mmHg 89%
    02:00 +2°C° 0 mm 5 mps 756 mmHg 90%
    03:00 +3°C° 0 mm 4 mps 755 mmHg 92%
    04:00 +3°C° 0 mm 4 mps 755 mmHg 93%
    05:00 +1°C° 0 mm 4 mps 754 mmHg 94%
    06:00 +2°C° 0 mm 3 mps 754 mmHg 95%
    07:00 +1°C° 0 mm 4 mps 753 mmHg 94%
    08:00 +3°C° 0 mm 4 mps 753 mmHg 92%
    09:00 +3°C° 0 mm 4 mps 752 mmHg 91%
    10:00 +3°C° 0.1 mm 5 mps 751 mmHg 90%
    11:00 +4°C° 0.1 mm 6 mps 749 mmHg 88%
    12:00 +4°C° 0.1 mm 7 mps 748 mmHg 86%
    13:00 +5°C° 2.5 mm 7 mps 746 mmHg 89%
    14:00 +5°C° 2.5 mm 6 mps 745 mmHg 93%
    15:00 +7°C° 2.5 mm 5 mps 743 mmHg 96%
    16:00 +7°C° 0.2 mm 6 mps 744 mmHg 96%
    17:00 +7°C° 0.2 mm 6 mps 744 mmHg 95%
    18:00 +7°C° 0.2 mm 6 mps 744 mmHg 94%
    19:00 +7°C° 0 mm 6 mps 744 mmHg 94%
    20:00 +7°C° 0 mm 6 mps 745 mmHg 93%
    21:00 +7°C° 0 mm 6 mps 746 mmHg 92%
    22:00 +7°C° 0 mm 6 mps 747 mmHg 91%
    23:00 +7°C° 0 mm 6 mps 748 mmHg 91%

    31 January, Friday

    Time Temperature Precipitation Wind Pressure Humidity
    00:00 +7°C° 0 mm 6 mps 749 mmHg 90%
    01:00 +7°C° 0 mm 6 mps 749 mmHg 91%
    02:00 +5°C° 0 mm 6 mps 750 mmHg 91%
    03:00 +5°C° 0 mm 6 mps 751 mmHg 91%
    04:00 +5°C° 0 mm 6 mps 751 mmHg 91%
    05:00 +5°C° 0 mm 6 mps 751 mmHg 91%
    06:00 +4°C° 0 mm 6 mps 751 mmHg 92%
    07:00 +5°C° 0 mm 6 mps 752 mmHg 92%
    08:00 +7°C° 0 mm 6 mps 752 mmHg 91%
    09:00 +7°C° 0 mm 5 mps 752 mmHg 91%
    10:00 +8°C° 0 mm 6 mps 752 mmHg 90%
    11:00 +9°C° 0 mm 7 mps 752 mmHg 89%
    12:00 +10°C° 0 mm 8 mps 752 mmHg 87%
    13:00 +10°C° 0.1 mm 8 mps 751 mmHg 88%
    14:00 +11°C° 0.1 mm 8 mps 751 mmHg 89%
    15:00 +11°C° 0.1 mm 8 mps 750 mmHg 90%
    16:00 +11°C° 0 mm 8 mps 750 mmHg 91%
    17:00 +11°C° 0 mm 7 mps 750 mmHg 91%
    18:00 +11°C° 0 mm 7 mps 750 mmHg 92%
    19:00 +10°C° 0 mm 7 mps 750 mmHg 91%
    20:00 +10°C° 0 mm 7 mps 750 mmHg 91%
    21:00 +10°C° 0 mm 7 mps 750 mmHg 91%
    22:00 +10°C° 0 mm 7 mps 751 mmHg 90%
    23:00 +9°C° 0 mm 7 mps 751 mmHg 88%
    Show more